Reedsburg, WI

4:07 AM CDT on September 25, 2016 (GMT -0500)
Reedsburg Muni, Reedsburg, WI

Weather History for KC35 - February, 2014

Change the Weather History Date:

Friday, February 21, 2014

  Actual Average (KDLL) Record (KDLL)
Temperature  
Mean Temperature 24 °F -  
Max Temperature 33 °F 35 °F 52 °F (1961)
Min Temperature 15 °F 15 °F -20 °F (1966)
Degree Days  
Heating Degree Days 41    
Moisture  
Dew Point 12 °F    
Average Humidity 70    
Maximum Humidity 89    
Minimum Humidity 57    
Precipitation  
Precipitation 0.02 in - - ()
Sea Level Pressure  
Sea Level Pressure 29.47 in    
Wind  
Wind Speed 20 mph (WSW)    
Max Wind Speed 28 mph    
Max Gust Speed 40 mph    
Visibility 9 miles    
Events Snow    
Averages and records for this station are not official NWS values.
T = Trace of Precipitation, MM = Missing Value Source: NWS Daily Summary

Daily Weather History Graph

Daily Weather History Graph

Search for Another Location

Airport or City:

Trip Planner

Search our weather history database for the weather conditions in past years. The results will help you decide how hot, cold, wet, or windy it might be!

Date:

Astronomy

Feb. 21, 2014 Rise Set
Actual Time 6:49 AM CST 5:38 PM CST
Civil Twilight 6:20 AM CST 6:07 PM CST
Nautical Twilight 5:46 AM CST 6:40 PM CST
Astronomical Twilight 5:13 AM CST 7:13 PM CST
Moon No Moon Rise 10:01 AM CST (2/21)
Length of Visible Light 11h 47m
Length of Day
10h 49m
Waning Gibbous, 60% of the Moon is Illuminated
Feb 21
Waning Gibbous
Feb 22
Last Quarter
Mar 1
New
Mar 8
First Quarter
Mar 16
Full

Hourly Weather History & Observations

Time (CST) Temp. Windchill Dew Point Humidity Pressure Visibility Wind Dir Wind Speed Gust Speed Precip Events Conditions
12:15 AM 33.3 °F 22.1 °F 30.2 °F 89% 29.10 in 10.0 mi WSW 18.4 mph 26.5 mph N/A   Overcast
12:35 AM 33.3 °F 21.2 °F 30.0 °F 88% 29.11 in 10.0 mi WSW 21.9 mph 26.5 mph N/A   Overcast
12:55 AM 33.4 °F 20.1 °F 28.0 °F 81% 29.12 in 10.0 mi WSW 27.6 mph 40.3 mph N/A   Overcast
1:15 AM 31.8 °F 19.0 °F 27.7 °F 85% 29.12 in 10.0 mi WSW 23.0 mph 31.1 mph N/A   Overcast
1:35 AM 30.0 °F 16.6 °F 25.3 °F 83% 29.13 in 10.0 mi West 23.0 mph 33.4 mph N/A   Overcast
1:55 AM 28.9 °F 15.4 °F 24.6 °F 84% 29.14 in 10.0 mi WSW 21.9 mph 26.5 mph N/A   Overcast
2:15 AM 27.0 °F 11.9 °F 21.7 °F 81% 29.16 in 10.0 mi West 25.3 mph 32.2 mph N/A   Overcast
2:35 AM 25.9 °F 10.1 °F 20.7 °F 81% 29.18 in 10.0 mi West 26.5 mph 35.7 mph N/A   Overcast
2:55 AM 23.7 °F 9.7 °F 18.5 °F 80% 29.20 in 10.0 mi WSW 18.4 mph 32.2 mph N/A   Overcast
3:15 AM 22.3 °F 6.3 °F 17.2 °F 81% 29.23 in 10.0 mi WSW 23.0 mph 28.8 mph N/A   Overcast
3:35 AM 20.8 °F 4.7 °F 15.1 °F 78% 29.25 in 10.0 mi WSW 21.9 mph 32.2 mph N/A   Overcast
3:55 AM 20.3 °F 2.6 °F 14.7 °F 79% 29.27 in 10.0 mi WSW 26.5 mph 29.9 mph N/A Snow Light Snow
4:15 AM 19.2 °F 3.0 °F 12.9 °F 76% 29.28 in 10.0 mi WSW 20.7 mph 33.4 mph N/A Snow Light Snow
4:35 AM 19.0 °F 4.0 °F 13.1 °F 78% 29.29 in 7.0 mi WSW 17.3 mph 29.9 mph N/A Snow Light Snow
4:55 AM 18.5 °F 3.8 °F 12.7 °F 78% 29.30 in 5.0 mi WSW 16.1 mph 28.8 mph N/A Snow Light Snow
5:15 AM 18.0 °F 2.2 °F 12.4 °F 79% 29.32 in 5.0 mi WSW 18.4 mph 27.6 mph N/A Snow Light Snow
5:35 AM 17.6 °F 0.5 °F 12.0 °F 79% 29.33 in 7.0 mi WSW 21.9 mph 26.5 mph N/A Snow Light Snow
5:55 AM 17.2 °F 3.3 °F 10.9 °F 76% 29.34 in 7.0 mi WSW 13.8 mph 27.6 mph N/A Snow Light Snow
6:15 AM 17.4 °F 1.9 °F 11.1 °F 76% 29.34 in 10.0 mi WSW 17.3 mph 26.5 mph N/A Snow Light Snow
6:35 AM 17.2 °F 1.7 °F 12.0 °F 80% 29.35 in 5.0 mi WSW 17.3 mph 23.0 mph N/A Snow Light Snow
7:00 AM 16.3 °F -0.8 °F 10.4 °F 77% 29.35 in 4.0 mi West 20.7 mph 28.8 mph N/A Snow Light Snow
7:15 AM 15.8 °F 1.4 °F 9.9 °F 77% 29.36 in 7.0 mi WSW 13.8 mph 28.8 mph N/A Snow Light Snow
7:35 AM 15.6 °F 1.2 °F 9.1 °F 76% 29.37 in 7.0 mi WSW 13.8 mph 28.8 mph N/A Snow Light Snow
7:55 AM 15.6 °F -2.6 °F 8.6 °F 74% 29.38 in 7.0 mi WSW 23.0 mph 31.1 mph N/A Snow Light Snow
8:15 AM 15.6 °F 0.1 °F 9.3 °F 76% 29.38 in 5.0 mi WSW 16.1 mph 26.5 mph N/A Snow Light Snow
8:35 AM 15.8 °F -2.7 °F 9.5 °F 76% 29.39 in 4.0 mi West 24.2 mph 31.1 mph N/A Snow Light Snow
8:55 AM 15.8 °F -2.3 °F 8.2 °F 72% 29.40 in 10.0 mi West 23.0 mph 35.7 mph N/A Snow Light Snow
9:15 AM 16.2 °F 0.3 °F 8.6 °F 72% 29.40 in 7.0 mi West 17.3 mph 31.1 mph N/A Snow Light Snow
9:35 AM 16.2 °F -0.2 °F 8.2 °F 71% 29.42 in 10.0 mi West 18.4 mph 33.4 mph N/A Snow Light Snow
9:55 AM 16.5 °F -1.0 °F 8.6 °F 71% 29.43 in 10.0 mi West 21.9 mph 28.8 mph N/A Snow Light Snow
10:15 AM 16.7 °F -1.1 °F 8.6 °F 70% 29.44 in 10.0 mi WSW 23.0 mph 29.9 mph N/A Snow Light Snow
10:35 AM 16.7 °F -0.7 °F 8.6 °F 70% 29.44 in 10.0 mi West 21.9 mph 33.4 mph N/A Snow Light Snow
10:55 AM 17.2 °F 1.2 °F 9.0 °F 70% 29.46 in 10.0 mi WSW 18.4 mph 33.4 mph N/A Snow Light Snow
11:15 AM 18.1 °F 1.2 °F 10.4 °F 72% 29.46 in 10.0 mi WSW 21.9 mph 28.8 mph N/A Snow Light Snow
11:35 AM 18.3 °F 2.2 °F 10.6 °F 72% 29.47 in 10.0 mi WSW 19.6 mph 35.7 mph N/A Snow Light Snow
11:55 AM 19.2 °F 3.8 °F 11.1 °F 71% 29.47 in 10.0 mi WSW 18.4 mph 28.8 mph N/A Snow Light Snow
12:15 PM 20.1 °F 2.7 °F 11.7 °F 70% 29.48 in 10.0 mi WSW 25.3 mph 31.1 mph N/A Snow Light Snow
12:35 PM 21.6 °F 4.7 °F 12.0 °F 67% 29.48 in 10.0 mi WSW 25.3 mph 32.2 mph N/A   Overcast
12:55 PM 21.7 °F 5.6 °F 12.0 °F 66% 29.49 in 10.0 mi WSW 23.0 mph 32.2 mph N/A   Overcast
1:15 PM 22.6 °F 6.8 °F 12.2 °F 64% 29.50 in 10.0 mi WSW 23.0 mph 31.1 mph N/A   Mostly Cloudy
1:35 PM 23.0 °F 6.6 °F 12.2 °F 63% 29.50 in 10.0 mi WSW 25.3 mph 31.1 mph N/A   Scattered Clouds
1:55 PM 23.9 °F 8.4 °F 12.4 °F 62% 29.51 in 10.0 mi WSW 23.0 mph 32.2 mph N/A   Clear
2:15 PM 24.3 °F 10.0 °F 12.7 °F 62% 29.52 in 10.0 mi WSW 19.6 mph 29.9 mph N/A   Scattered Clouds
2:35 PM 24.1 °F 8.3 °F 12.4 °F 61% 29.52 in 10.0 mi WSW 24.2 mph 32.2 mph N/A   Scattered Clouds
2:55 PM 24.4 °F 9.9 °F 11.7 °F 58% 29.53 in 10.0 mi WSW 20.7 mph 32.2 mph N/A   Clear
3:15 PM 24.4 °F 9.5 °F 12.0 °F 59% 29.55 in 10.0 mi WSW 21.9 mph 29.9 mph N/A   Clear
3:35 PM 24.3 °F 8.9 °F 10.9 °F 57% 29.56 in 10.0 mi West 23.0 mph 32.2 mph N/A   Clear
3:55 PM 23.9 °F 7.8 °F 11.1 °F 58% 29.57 in 10.0 mi West 25.3 mph 31.1 mph N/A   Clear
4:15 PM 23.9 °F 8.8 °F 10.8 °F 57% 29.58 in 10.0 mi West 21.9 mph 32.2 mph N/A   Clear
4:35 PM 23.7 °F 8.2 °F 10.8 °F 58% 29.59 in 10.0 mi WSW 23.0 mph 33.4 mph N/A   Clear
4:55 PM 23.0 °F 7.6 °F 10.8 °F 60% 29.60 in 10.0 mi WSW 21.9 mph 25.3 mph N/A   Clear
5:15 PM 22.5 °F 8.5 °F 10.0 °F 59% 29.61 in 10.0 mi West 17.3 mph 36.8 mph N/A   Clear
5:35 PM 21.6 °F 8.2 °F 9.5 °F 60% 29.62 in 10.0 mi WSW 15.0 mph 29.9 mph N/A   Clear
5:55 PM 21.0 °F 6.6 °F 9.5 °F 61% 29.63 in 10.0 mi WSW 17.3 mph 25.3 mph N/A   Clear
6:15 PM 20.5 °F 5.9 °F 9.1 °F 62% 29.64 in 10.0 mi West 17.3 mph 24.2 mph N/A   Clear
6:35 PM 20.1 °F 4.2 °F 9.3 °F 63% 29.66 in 10.0 mi West 20.7 mph 28.8 mph N/A   Clear
6:55 PM 19.8 °F 5.9 °F 9.1 °F 63% 29.67 in 10.0 mi WSW 15.0 mph 26.5 mph N/A   Clear
7:15 PM 19.4 °F 4.1 °F 9.1 °F 64% 29.68 in 10.0 mi WSW 18.4 mph 26.5 mph N/A   Clear
7:35 PM 19.0 °F 2.4 °F 9.0 °F 65% 29.68 in 10.0 mi WSW 21.9 mph 29.9 mph N/A   Clear
7:55 PM 18.7 °F 4.0 °F 9.1 °F 66% 29.69 in 10.0 mi WSW 16.1 mph 23.0 mph N/A   Clear
8:15 PM 18.5 °F 4.3 °F 9.5 °F 68% 29.70 in 10.0 mi WSW 15.0 mph 23.0 mph N/A   Clear
8:35 PM 18.1 °F 3.9 °F 9.5 °F 69% 29.71 in 10.0 mi WSW 15.0 mph - N/A   Clear
8:55 PM 18.1 °F 2.9 °F 9.5 °F 69% 29.72 in 10.0 mi WSW 17.3 mph 24.2 mph N/A   Clear
9:15 PM 18.1 °F 4.4 °F 9.5 °F 69% 29.72 in 10.0 mi WSW 13.8 mph 24.2 mph N/A   Clear
9:35 PM 18.1 °F 3.9 °F 9.1 °F 68% 29.72 in 10.0 mi WSW 15.0 mph 20.7 mph N/A   Clear
9:55 PM 18.5 °F 4.9 °F 8.6 °F 65% 29.72 in 10.0 mi WSW 13.8 mph 21.9 mph N/A   Clear
10:15 PM 18.3 °F 4.6 °F 8.6 °F 66% 29.73 in 10.0 mi WSW 13.8 mph - N/A   Clear
10:35 PM 18.0 °F 4.2 °F 8.6 °F 67% 29.73 in 10.0 mi WSW 13.8 mph 20.7 mph N/A   Clear
10:55 PM 18.1 °F 3.9 °F 8.6 °F 66% 29.73 in 10.0 mi WSW 15.0 mph 21.9 mph N/A   Clear
11:15 PM 18.0 °F 4.2 °F 8.4 °F 66% 29.73 in 10.0 mi West 13.8 mph 21.9 mph N/A   Clear
11:35 PM 17.8 °F 4.6 °F 8.2 °F 66% 29.74 in 10.0 mi WSW 12.7 mph 17.3 mph N/A   Clear
11:55 PM 17.6 °F 5.7 °F 7.9 °F 66% 29.74 in 10.0 mi WSW 10.4 mph 20.7 mph N/A   Clear